Time,TemperatureF,DewpointF,PressureIn,WindDirection,WindDirectionDegrees,WindSpeedMPH,WindSpeedGustMPH,Humidity,HourlyPrecipIn,Conditions,Clouds,dailyrainin,SoftwareType,DateUTC
2013-08-01 00:00:00,67.2,49.5,30.10,North,0,0.0,2.0,53,0.00,,---,0.00,VWS V14.01,2013-08-01 08:00:00,
2013-08-01 00:30:00,67.4,48.7,30.10,North,0,0.0,1.0,51,0.00,,---,0.00,VWS V14.01,2013-08-01 08:30:00,
2013-08-01 01:00:00,67.1,48.4,30.11,North,0,0.0,1.0,51,0.00,,---,0.00,VWS V14.01,2013-08-01 09:00:00,
2013-08-01 01:30:00,66.9,48.2,30.11,North,0,0.0,1.0,51,0.00,,---,0.00,VWS V14.01,2013-08-01 09:30:00,
2013-08-01 02:00:00,67.0,48.3,30.10,North,0,0.0,1.0,51,0.00,,---,0.00,VWS V14.01,2013-08-01 10:00:00,
2013-08-01 02:30:00,66.7,48.5,30.11,North,0,0.0,1.0,52,0.00,,---,0.00,VWS V14.01,2013-08-01 10:30:00,
2013-08-01 03:00:00,65.6,48.5,30.10,North,0,0.0,0.0,54,0.00,,---,0.00,VWS V14.01,2013-08-01 11:00:00,
2013-08-01 03:30:00,64.3,49.2,30.10,North,0,0.0,1.0,58,0.00,,---,0.00,VWS V14.01,2013-08-01 11:30:00,
2013-08-01 04:00:00,62.3,50.0,30.10,North,0,0.0,1.0,64,0.00,,---,0.00,VWS V14.01,2013-08-01 12:00:00,
2013-08-01 04:30:00,61.1,50.5,30.10,North,0,0.0,1.0,68,0.00,,---,0.00,VWS V14.01,2013-08-01 12:30:00,
2013-08-01 05:00:00,62.0,50.1,30.09,North,0,0.0,1.0,65,0.00,,---,0.00,VWS V14.01,2013-08-01 13:00:00,
2013-08-01 05:30:00,62.6,49.8,30.10,North,0,0.0,1.0,63,0.00,,---,0.00,VWS V14.01,2013-08-01 13:30:00,
2013-08-01 06:00:00,62.3,50.0,30.09,North,0,0.0,0.0,64,0.00,,---,0.00,VWS V14.01,2013-08-01 14:00:00,
2013-08-01 06:30:00,60.6,50.4,30.10,North,0,0.0,1.0,69,0.00,,---,0.00,VWS V14.01,2013-08-01 14:30:00,
2013-08-01 07:00:00,60.5,51.1,30.09,North,0,0.0,1.0,71,0.00,,---,0.00,VWS V14.01,2013-08-01 15:00:00,
2013-08-01 07:30:00,61.0,51.9,30.09,North,0,0.0,1.0,72,0.00,,---,0.00,VWS V14.01,2013-08-01 15:30:00,
2013-08-01 08:00:00,61.3,51.5,30.10,North,0,0.0,2.0,70,0.00,,---,0.00,VWS V14.01,2013-08-01 16:00:00,
2013-08-01 08:30:00,62.1,52.2,30.09,North,0,0.0,2.0,70,0.00,,---,0.00,VWS V14.01,2013-08-01 16:30:00,
2013-08-01 09:00:00,62.9,52.2,30.09,SSW,202,0.0,1.0,68,0.00,,---,0.00,VWS V14.01,2013-08-01 17:00:00,
2013-08-01 09:30:00,64.2,53.0,30.09,South,180,0.0,5.0,67,0.00,,---,0.00,VWS V14.01,2013-08-01 17:30:00,
2013-08-01 10:00:00,65.4,53.3,30.09,SSW,202,0.0,4.0,65,0.00,,---,0.00,VWS V14.01,2013-08-01 18:00:00,
2013-08-01 10:30:00,66.7,54.2,30.09,South,180,0.0,5.0,64,0.00,,---,0.00,VWS V14.01,2013-08-01 18:30:00,
2013-08-01 11:00:00,68.6,54.2,30.08,South,180,0.0,4.0,60,0.00,,---,0.00,VWS V14.01,2013-08-01 19:00:00,
2013-08-01 11:30:00,70.2,53.8,30.08,SSE,158,0.0,4.0,56,0.00,,---,0.00,VWS V14.01,2013-08-01 19:30:00,
2013-08-01 12:00:00,72.3,54.7,30.08,South,180,0.0,5.0,54,0.00,,---,0.00,VWS V14.01,2013-08-01 20:00:00,
2013-08-01 12:30:00,73.5,54.3,30.07,South,180,1.0,7.0,51,0.00,,---,0.00,VWS V14.01,2013-08-01 20:30:00,
2013-08-01 13:00:00,74.6,54.2,30.06,South,180,1.0,5.0,49,0.00,,---,0.00,VWS V14.01,2013-08-01 21:00:00,
2013-08-01 13:30:00,76.0,53.8,30.05,South,180,1.0,5.0,46,0.00,,---,0.00,VWS V14.01,2013-08-01 21:30:00,
2013-08-01 14:00:00,76.4,52.9,30.04,South,180,1.0,6.0,44,0.00,,---,0.00,VWS V14.01,2013-08-01 22:00:00,
2013-08-01 14:30:00,77.0,50.9,30.03,South,180,1.0,7.0,40,0.00,,---,0.00,VWS V14.01,2013-08-01 22:30:00,
2013-08-01 15:00:00,78.0,51.1,30.02,South,180,1.0,6.0,39,0.00,,---,0.00,VWS V14.01,2013-08-01 23:00:00,
2013-08-01 15:30:00,78.7,51.0,30.01,South,180,1.0,7.0,38,0.00,,---,0.00,VWS V14.01,2013-08-01 23:30:00,
2013-08-01 16:13:00,79.1,48.3,29.99,SSE,166,0.0,1.0,34,0.00,,---,0.00,VWS V14.01,2013-08-02 00:13:00,
2013-08-01 16:18:00,78.6,48.7,29.99,NE,49,0.0,2.0,35,0.00,,---,0.00,VWS V14.01,2013-08-02 00:18:00,
2013-08-01 16:23:00,78.1,49.0,29.99,NE,34,0.0,2.0,36,0.00,,---,0.00,VWS V14.01,2013-08-02 00:23:00,
2013-08-01 16:28:00,77.8,50.2,29.99,NE,34,0.0,2.0,38,0.00,,---,0.00,VWS V14.01,2013-08-02 00:28:00,
2013-08-01 16:30:00,78.0,50.4,29.99,NE,34,0.0,2.0,38,0.00,,---,0.00,VWS V14.01,2013-08-02 00:30:00,
2013-08-01 16:33:00,78.2,49.1,29.98,NE,36,0.0,1.0,36,0.00,,---,0.00,VWS V14.01,2013-08-02 00:33:00,
2013-08-01 16:38:00,78.4,50.0,29.98,SE,142,0.0,1.0,37,0.00,,---,0.00,VWS V14.01,2013-08-02 00:38:00,
2013-08-01 16:43:00,78.8,49.6,29.98,SE,146,1.0,2.0,36,0.00,,---,0.00,VWS V14.01,2013-08-02 00:43:00,
2013-08-01 16:48:00,79.3,50.1,29.98,South,170,0.0,5.0,36,0.00,,---,0.00,VWS V14.01,2013-08-02 00:48:00,
2013-08-01 16:53:00,79.8,49.0,29.98,South,180,0.0,5.0,34,0.00,,---,0.00,VWS V14.01,2013-08-02 00:53:00,
2013-08-01 16:58:00,79.6,48.8,29.97,South,180,0.0,5.0,34,0.00,,---,0.00,VWS V14.01,2013-08-02 00:58:00,
2013-08-01 17:00:00,79.7,48.9,29.97,SSE,155,1.0,5.0,34,0.00,,---,0.00,VWS V14.01,2013-08-02 01:00:00,
2013-08-01 17:03:00,79.7,48.1,29.97,South,186,0.0,4.0,33,0.00,,---,0.00,VWS V14.01,2013-08-02 01:03:00,
2013-08-01 17:08:00,79.5,47.9,29.97,ENE,58,1.0,4.0,33,0.00,,---,0.00,VWS V14.01,2013-08-02 01:08:00,
2013-08-01 17:13:00,79.4,49.4,29.97,ENE,58,0.0,4.0,35,0.00,,---,0.00,VWS V14.01,2013-08-02 01:13:00,
2013-08-01 17:18:00,79.3,48.5,29.96,ENE,60,0.0,4.0,34,0.00,,---,0.00,VWS V14.01,2013-08-02 01:18:00,
2013-08-01 17:23:00,79.4,49.4,29.96,SSE,167,0.0,4.0,35,0.00,,---,0.00,VWS V14.01,2013-08-02 01:23:00,
2013-08-01 17:28:00,79.4,48.6,29.96,ESE,116,0.0,4.0,34,0.00,,---,0.00,VWS V14.01,2013-08-02 01:28:00,
2013-08-01 17:30:00,79.2,48.4,29.96,SW,228,0.0,4.0,34,0.00,,---,0.00,VWS V14.01,2013-08-02 01:30:00,
2013-08-01 17:33:00,79.1,48.3,29.96,WSW,240,1.0,1.0,34,0.00,,---,0.00,VWS V14.01,2013-08-02 01:33:00,
2013-08-01 17:38:00,78.9,48.2,29.95,North,355,0.0,5.0,34,0.00,,---,0.00,VWS V14.01,2013-08-02 01:38:00,
2013-08-01 17:43:00,79.0,49.0,29.95,ENE,68,0.0,5.0,35,0.00,,---,0.00,VWS V14.01,2013-08-02 01:43:00,
2013-08-01 17:49:00,79.0,48.3,29.95,NE,42,0.0,5.0,34,0.00,,---,0.00,VWS V14.01,2013-08-02 01:49:00,
2013-08-01 17:54:00,78.9,48.2,29.95,NE,40,1.0,5.0,34,0.00,,---,0.00,VWS V14.01,2013-08-02 01:54:00,
2013-08-01 17:59:00,78.8,48.1,29.95,NE,53,0.0,5.0,34,0.00,,---,0.00,VWS V14.01,2013-08-02 01:59:00,
2013-08-01 18:00:00,78.7,47.2,29.95,NE,53,0.0,5.0,33,0.00,,---,0.00,VWS V14.01,2013-08-02 02:00:00,
2013-08-01 18:04:00,78.6,47.9,29.95,NE,53,0.0,1.0,34,0.00,,---,0.00,VWS V14.01,2013-08-02 02:04:00,
2013-08-01 18:09:00,78.6,47.9,29.95,NE,51,0.0,4.0,34,0.00,,---,0.00,VWS V14.01,2013-08-02 02:09:00,
2013-08-01 18:14:00,78.6,47.9,29.94,North,360,2.0,4.0,34,0.00,,---,0.00,VWS V14.01,2013-08-02 02:14:00,
2013-08-01 18:19:00,78.6,47.9,29.94,ENE,75,0.0,4.0,34,0.00,,---,0.00,VWS V14.01,2013-08-02 02:19:00,
2013-08-01 18:24:00,78.7,48.0,29.94,ENE,67,0.0,4.0,34,0.00,,---,0.00,VWS V14.01,2013-08-02 02:24:00,
2013-08-01 18:29:00,78.6,47.1,29.94,NE,40,0.0,5.0,33,0.00,,---,0.00,VWS V14.01,2013-08-02 02:29:00,
2013-08-01 18:30:00,78.6,47.9,29.94,NE,41,0.0,5.0,34,0.00,,---,0.00,VWS V14.01,2013-08-02 02:30:00,
2013-08-01 18:34:00,78.5,47.8,29.94,NE,42,0.0,1.0,34,0.00,,---,0.00,VWS V14.01,2013-08-02 02:34:00,
2013-08-01 18:39:00,78.5,47.0,29.94,ENE,74,0.0,1.0,33,0.00,,---,0.00,VWS V14.01,2013-08-02 02:39:00,
2013-08-01 18:44:00,78.4,47.0,29.94,North,11,5.0,5.0,33,0.00,,---,0.00,VWS V14.01,2013-08-02 02:44:00,
2013-08-01 18:49:00,78.4,47.0,29.93,ENE,69,0.0,5.0,33,0.00,,---,0.00,VWS V14.01,2013-08-02 02:49:00,
2013-08-01 18:54:00,78.4,47.7,29.93,East,80,0.0,5.0,34,0.00,,---,0.00,VWS V14.01,2013-08-02 02:54:00,
2013-08-01 18:59:00,78.4,47.0,29.93,NE,52,0.0,5.0,33,0.00,,---,0.00,VWS V14.01,2013-08-02 02:59:00,
2013-08-01 19:00:00,78.4,47.0,29.93,NE,51,1.0,5.0,33,0.00,,---,0.00,VWS V14.01,2013-08-02 03:00:00,
2013-08-01 19:05:00,78.3,46.9,29.93,NE,51,0.0,2.0,33,0.00,,---,0.00,VWS V14.01,2013-08-02 03:05:00,
2013-08-01 19:09:00,78.3,46.9,29.93,NE,42,0.0,2.0,33,0.00,,---,0.00,VWS V14.01,2013-08-02 03:09:00,
2013-08-01 19:15:00,78.2,46.8,29.93,North,9,0.0,3.0,33,0.00,,---,0.00,VWS V14.01,2013-08-02 03:15:00,
2013-08-01 19:20:00,78.2,46.8,29.93,NNE,27,2.0,3.0,33,0.00,,---,0.00,VWS V14.01,2013-08-02 03:20:00,
2013-08-01 19:25:00,78.1,47.5,29.93,NE,36,0.0,4.0,34,0.00,,---,0.00,VWS V14.01,2013-08-02 03:25:00,
2013-08-01 19:30:00,78.0,47.4,29.93,NNE,22,0.0,5.0,34,0.00,,---,0.00,VWS V14.01,2013-08-02 03:30:00,
2013-08-01 19:35:00,78.0,47.4,29.93,NNE,30,0.0,2.0,34,0.00,,---,0.00,VWS V14.01,2013-08-02 03:35:00,
2013-08-01 19:40:00,77.9,46.5,29.93,ENE,63,0.0,2.0,33,0.00,,---,0.00,VWS V14.01,2013-08-02 03:40:00,
2013-08-01 19:45:00,77.8,47.2,29.92,ENE,58,0.0,4.0,34,0.00,,---,0.00,VWS V14.01,2013-08-02 03:45:00,
2013-08-01 19:50:00,77.8,46.4,29.92,ENE,58,0.0,4.0,33,0.00,,---,0.00,VWS V14.01,2013-08-02 03:50:00,
2013-08-01 19:56:00,77.6,46.2,29.92,ENE,58,0.0,4.0,33,0.00,,---,0.00,VWS V14.01,2013-08-02 03:56:00,
2013-08-01 20:00:00,77.5,47.0,29.92,ENE,58,0.0,4.0,34,0.00,,---,0.00,VWS V14.01,2013-08-02 04:00:00,
2013-08-01 20:01:00,77.5,46.2,29.92,ENE,58,0.0,4.0,33,0.00,,---,0.00,VWS V14.01,2013-08-02 04:01:00,
2013-08-01 20:06:00,77.4,46.9,29.92,ENE,74,2.0,3.0,34,0.00,,---,0.00,VWS V14.01,2013-08-02 04:06:00,
2013-08-01 20:11:00,77.4,46.9,29.92,NE,54,0.0,5.0,34,0.00,,---,0.00,VWS V14.01,2013-08-02 04:11:00,
2013-08-01 20:15:00,77.4,46.9,29.92,NE,53,0.0,5.0,34,0.00,,---,0.00,VWS V14.01,2013-08-02 04:15:00,
2013-08-01 20:16:00,77.3,46.8,29.92,NE,53,0.0,5.0,34,0.00,,---,0.00,VWS V14.01,2013-08-02 04:16:00,
2013-08-01 20:21:00,77.2,46.7,29.92,ENE,62,0.0,5.0,34,0.00,,---,0.00,VWS V14.01,2013-08-02 04:21:00,
2013-08-01 20:26:00,77.1,46.6,29.92,ENE,59,1.0,5.0,34,0.00,,---,0.00,VWS V14.01,2013-08-02 04:26:00,
2013-08-01 20:30:00,76.9,47.2,29.92,NE,55,0.0,5.0,35,0.00,,---,0.00,VWS V14.01,2013-08-02 04:30:00,
2013-08-01 20:31:00,77.0,47.3,29.92,NE,55,0.0,5.0,35,0.00,,---,0.00,VWS V14.01,2013-08-02 04:31:00,
2013-08-01 20:36:00,76.8,46.3,29.92,East,83,0.0,2.0,34,0.00,,---,0.00,VWS V14.01,2013-08-02 04:36:00,
2013-08-01 20:41:00,76.7,46.2,29.92,NE,36,0.0,2.0,34,0.00,,---,0.00,VWS V14.01,2013-08-02 04:41:00,
2013-08-01 20:46:00,76.6,46.2,29.92,ENE,69,0.0,3.0,34,0.00,,---,0.00,VWS V14.01,2013-08-02 04:46:00,
2013-08-01 20:51:00,76.5,46.8,29.92,ENE,58,0.0,3.0,35,0.00,,---,0.00,VWS V14.01,2013-08-02 04:51:00,
2013-08-01 20:56:00,76.4,46.8,29.92,NE,39,0.0,4.0,35,0.00,,---,0.00,VWS V14.01,2013-08-02 04:56:00,
2013-08-01 21:00:00,76.3,46.7,29.91,ENE,59,1.0,4.0,35,0.00,,---,0.00,VWS V14.01,2013-08-02 05:00:00,
2013-08-01 21:01:00,76.3,46.7,29.91,ENE,59,0.0,4.0,35,0.00,,---,0.00,VWS V14.01,2013-08-02 05:01:00,
2013-08-01 21:06:00,76.2,47.3,29.91,NE,38,0.0,3.0,36,0.00,,---,0.00,VWS V14.01,2013-08-02 05:06:00,
2013-08-01 21:11:00,76.1,46.5,29.91,NNE,32,4.0,4.0,35,0.00,,---,0.00,VWS V14.01,2013-08-02 05:11:00,
2013-08-01 21:16:00,76.0,47.2,29.91,NE,41,0.0,4.0,36,0.00,,---,0.00,VWS V14.01,2013-08-02 05:16:00,
2013-08-01 21:21:00,76.0,46.4,29.91,NE,38,2.0,4.0,35,0.00,,---,0.00,VWS V14.01,2013-08-02 05:21:00,
2013-08-01 21:26:00,75.9,46.3,29.91,NE,53,0.0,4.0,35,0.00,,---,0.00,VWS V14.01,2013-08-02 05:26:00,
2013-08-01 21:30:00,75.8,47.0,29.91,East,91,4.0,4.0,36,0.00,,---,0.00,VWS V14.01,2013-08-02 05:30:00,
2013-08-01 21:31:00,75.8,47.0,29.91,NE,42,1.0,4.0,36,0.00,,---,0.00,VWS V14.01,2013-08-02 05:31:00,
2013-08-01 21:36:00,75.7,46.9,29.90,NNE,25,3.0,4.0,36,0.00,,---,0.00,VWS V14.01,2013-08-02 05:36:00,
2013-08-01 21:41:00,75.7,46.9,29.90,NE,40,0.0,4.0,36,0.00,,---,0.00,VWS V14.01,2013-08-02 05:41:00,
2013-08-01 21:45:00,75.5,46.7,29.90,NE,44,1.0,5.0,36,0.00,,---,0.00,VWS V14.01,2013-08-02 05:45:00,
2013-08-01 21:50:00,75.4,47.3,29.90,ENE,57,5.0,5.0,37,0.00,,---,0.00,VWS V14.01,2013-08-02 05:50:00,
2013-08-01 21:55:00,75.2,47.9,29.90,ENE,60,0.0,5.0,38,0.00,,---,0.00,VWS V14.01,2013-08-02 05:55:00,
2013-08-01 22:00:00,75.1,47.8,29.90,NNE,23,1.0,7.0,38,0.00,,---,0.00,VWS V14.01,2013-08-02 06:00:00,
2013-08-01 22:05:00,74.9,47.6,29.90,SE,125,2.0,6.0,38,0.00,,---,0.00,VWS V14.01,2013-08-02 06:05:00,
2013-08-01 22:10:00,74.7,48.1,29.90,ENE,67,1.0,6.0,39,0.00,,---,0.00,VWS V14.01,2013-08-02 06:10:00,
2013-08-01 22:15:00,74.6,48.0,29.90,NE,44,0.0,6.0,39,0.00,,---,0.00,VWS V14.01,2013-08-02 06:15:00,
2013-08-01 22:20:00,74.6,48.0,29.90,ENE,67,1.0,6.0,39,0.00,,---,0.00,VWS V14.01,2013-08-02 06:20:00,
2013-08-01 22:25:00,74.5,47.9,29.90,East,98,2.0,7.0,39,0.00,,---,0.00,VWS V14.01,2013-08-02 06:25:00,
2013-08-01 22:30:00,74.5,48.6,29.90,NE,41,2.0,8.0,40,0.00,,---,0.00,VWS V14.01,2013-08-02 06:30:00,
2013-08-01 22:35:00,74.6,48.7,29.90,NNE,26,1.0,6.0,40,0.00,,---,0.00,VWS V14.01,2013-08-02 06:35:00,
2013-08-01 22:40:00,74.6,48.7,29.90,ENE,61,5.0,6.0,40,0.00,,---,0.00,VWS V14.01,2013-08-02 06:40:00,
2013-08-01 22:45:00,74.5,48.6,29.90,ENE,61,1.0,6.0,40,0.00,,---,0.00,VWS V14.01,2013-08-02 06:45:00,
2013-08-01 22:50:00,74.4,47.9,29.89,East,96,0.0,6.0,39,0.00,,---,0.00,VWS V14.01,2013-08-02 06:50:00,
2013-08-01 22:55:00,74.3,47.8,29.89,NE,40,1.0,6.0,39,0.00,,---,0.00,VWS V14.01,2013-08-02 06:55:00,
2013-08-01 23:00:00,74.4,47.9,29.89,ENE,67,2.0,7.0,39,0.00,,---,0.00,VWS V14.01,2013-08-02 07:00:00,
2013-08-01 23:05:00,74.4,48.5,29.89,NE,54,0.0,4.0,40,0.00,,---,0.00,VWS V14.01,2013-08-02 07:05:00,
2013-08-01 23:10:00,74.2,48.3,29.89,NNE,33,1.0,6.0,40,0.00,,---,0.00,VWS V14.01,2013-08-02 07:10:00,
2013-08-01 23:15:00,74.2,48.3,29.89,NE,51,0.0,6.0,40,0.00,,---,0.00,VWS V14.01,2013-08-02 07:15:00,
2013-08-01 23:20:00,74.0,47.5,29.89,ESE,122,0.0,6.0,39,0.00,,---,0.00,VWS V14.01,2013-08-02 07:20:00,
2013-08-01 23:25:00,74.0,48.2,29.89,SE,134,1.0,6.0,40,0.00,,---,0.00,VWS V14.01,2013-08-02 07:25:00,
2013-08-01 23:30:00,73.9,48.1,29.89,East,91,0.0,6.0,40,0.00,,---,0.00,VWS V14.01,2013-08-02 07:30:00,
2013-08-01 23:35:00,73.7,47.9,29.89,NNE,30,0.0,3.0,40,0.00,,---,0.00,VWS V14.01,2013-08-02 07:35:00,
2013-08-01 23:40:00,73.5,47.7,29.89,East,79,0.0,5.0,40,0.00,,---,0.00,VWS V14.01,2013-08-02 07:40:00,
2013-08-01 23:45:00,73.5,47.7,29.89,NE,39,0.0,5.0,40,0.00,,---,0.00,VWS V14.01,2013-08-02 07:45:00,
2013-08-01 23:50:00,73.5,47.7,29.89,NE,45,0.0,5.0,40,0.00,,---,0.00,VWS V14.01,2013-08-02 07:50:00,
2013-08-01 23:55:00,73.4,47.6,29.89,East,80,0.0,5.0,40,0.00,,---,0.00,VWS V14.01,2013-08-02 07:55:00,